Location: Coupvray
(48.8929°N, 2.7967°E)
Time: 23:51:22
(UTC+00:00)

Cosmos 1241 Rocket - Pass Details

Date: 01 November 2020
Orbit: 929 x 1018 km, 65.8° (Epoch: 28 November)

Event Time Altitude Azimuth Distance (km) Brightness Sun altitude
Rises 20:58:30 0° 314° (NW) 3,723 8.3 -43.6°
Reaches altitude 10° 21:01:48 10° 330° (NNW) 2,786 7.4 -44.1°
Enters shadow 21:03:49 17° 346° (NNW) 2,343 6.8 -44.4°
